Location: Sungai Bunut
(2.6333°N, 113.7333°E)
Time: 09:17:58
(UTC+00:00)

Transit 2A Rocket - Pass Details

Date: 05 December 2023
Orbit: 590 x 905 km, 66.7° (Epoch: 01 March)

Event Time Altitude Azimuth Distance (km) Brightness Sun altitude
Rises 11:25:56 0° 185° (S) 3,366 8.7 -17.3°
Reaches altitude 10° 11:28:39 10° 177° (S) 2,382 7.8 -17.9°
Maximum altitude 11:33:39 37° 111° (ESE) 1,154 5.5 -19.0°
Enters shadow 11:34:30 35° 89° (E) 1,193 5.5 -19.2°
Drops below altitude 10° 11:38:15 10° 44° (NE) 2,180 - -20.1°
Sets 11:40:37 0° 35° (NE) 3,045 - -20.6°
